TimeCST,TemperatureF,Dew PointF,Humidity,Sea Level PressureIn,VisibilityMPH,Wind Direction,Wind SpeedMPH,Gust SpeedMPH,PrecipitationIn,Events,Conditions,WindDirDegrees,DateUTC
12:15 AM,41.0,25.0,53,30.21,10.0,NNW,4.6,-,N/A,,Clear,340,2013-03-01 06:15:00
12:35 AM,39.6,26.4,59,30.21,10.0,Calm,Calm,-,N/A,,Clear,0,2013-03-01 06:35:00
12:55 AM,39.4,26.2,59,30.22,10.0,North,3.5,-,N/A,,Clear,360,2013-03-01 06:55:00
1:15 AM,39.2,27.0,62,30.22,10.0,North,3.5,-,N/A,,Clear,10,2013-03-01 07:15:00
1:35 AM,38.1,27.5,66,30.21,10.0,NE,4.6,-,N/A,,Clear,40,2013-03-01 07:35:00
1:55 AM,36.3,28.2,72,30.21,10.0,NNE,4.6,-,N/A,,Clear,30,2013-03-01 07:55:00
2:15 AM,36.7,27.5,69,30.20,10.0,NNE,4.6,-,N/A,,Clear,30,2013-03-01 08:15:00
2:35 AM,36.7,27.3,69,30.20,10.0,North,4.6,-,N/A,,Clear,10,2013-03-01 08:35:00
2:55 AM,36.0,27.3,71,30.20,10.0,NNE,4.6,-,N/A,,Clear,20,2013-03-01 08:55:00
3:15 AM,36.0,28.2,73,30.20,10.0,North,4.6,-,N/A,,Clear,360,2013-03-01 09:15:00
4:15 AM,35.6,28.8,76,30.20,10.0,North,5.8,-,N/A,,Clear,10,2013-03-01 10:15:00
4:35 AM,36.1,29.1,76,30.21,10.0,NNE,4.6,-,N/A,,Clear,20,2013-03-01 10:35:00
4:55 AM,35.2,29.1,78,30.21,10.0,North,3.5,-,N/A,,Clear,10,2013-03-01 10:55:00
5:15 AM,34.9,28.9,79,30.21,10.0,North,3.5,-,N/A,,Clear,10,2013-03-01 11:15:00
5:35 AM,34.7,28.4,78,30.21,10.0,North,3.5,-,N/A,,Clear,360,2013-03-01 11:35:00
5:55 AM,33.8,28.8,82,30.23,10.0,WNW,3.5,-,N/A,,Clear,300,2013-03-01 11:55:00
6:15 AM,33.6,28.4,81,30.24,10.0,NNW,5.8,-,N/A,,Clear,330,2013-03-01 12:15:00
6:35 AM,32.9,28.4,84,30.23,10.0,Calm,Calm,-,N/A,,Clear,0,2013-03-01 12:35:00
6:55 AM,33.3,29.3,85,30.23,10.0,Calm,Calm,-,N/A,,Clear,0,2013-03-01 12:55:00
7:15 AM,32.7,29.1,87,30.24,10.0,North,3.5,-,N/A,,Clear,350,2013-03-01 13:15:00
7:35 AM,33.1,28.6,84,30.24,10.0,Calm,Calm,-,N/A,,Clear,0,2013-03-01 13:35:00
7:55 AM,34.3,29.3,82,30.25,10.0,NW,3.5,-,N/A,,Clear,320,2013-03-01 13:55:00
8:15 AM,37.2,30.9,78,30.26,10.0,North,3.5,-,N/A,,Clear,350,2013-03-01 14:15:00
8:35 AM,37.8,30.2,74,30.27,10.0,NNW,4.6,-,N/A,,Clear,330,2013-03-01 14:35:00
8:55 AM,39.0,30.2,71,30.28,10.0,North,5.8,-,N/A,,Clear,350,2013-03-01 14:55:00
9:35 AM,40.5,30.2,67,30.29,10.0,NNE,4.6,-,N/A,,Clear,30,2013-03-01 15:35:00
9:55 AM,41.4,29.8,64,30.29,10.0,North,4.6,-,N/A,,Clear,360,2013-03-01 15:55:00
10:15 AM,42.1,29.3,61,30.29,10.0,North,4.6,-,N/A,,Clear,360,2013-03-01 16:15:00
10:35 AM,43.0,28.4,56,30.29,10.0,North,4.6,-,N/A,,Clear,10,2013-03-01 16:35:00
10:55 AM,45.1,27.7,50,30.28,10.0,NNW,6.9,-,N/A,,Clear,340,2013-03-01 16:55:00
11:35 AM,47.3,28.6,48,30.27,10.0,North,5.8,-,N/A,,Clear,360,2013-03-01 17:35:00
12:15 PM,49.1,27.9,44,30.26,10.0,NNW,9.2,-,N/A,,Clear,340,2013-03-01 18:15:00
12:35 PM,49.8,28.4,44,30.25,10.0,North,5.8,-,N/A,,Clear,350,2013-03-01 18:35:00
12:55 PM,49.5,28.0,44,30.24,10.0,NW,10.4,-,N/A,,Mostly Cloudy,320,2013-03-01 18:55:00
1:15 PM,48.2,29.3,48,30.23,10.0,NNW,9.2,-,N/A,Rain,Light Rain,340,2013-03-01 19:15:00
1:35 PM,49.5,29.3,46,30.22,10.0,North,9.2,-,N/A,,Overcast,360,2013-03-01 19:35:00
1:55 PM,50.2,29.3,45,30.21,10.0,North,10.4,-,N/A,,Mostly Cloudy,350,2013-03-01 19:55:00
2:15 PM,50.4,29.5,45,30.20,10.0,North,8.1,-,N/A,,Scattered Clouds,360,2013-03-01 20:15:00
2:35 PM,53.6,30.7,42,30.19,10.0,North,11.5,17.3,N/A,,Scattered Clouds,10,2013-03-01 20:35:00
3:15 PM,52.5,31.1,44,30.19,10.0,North,10.4,18.4,N/A,,Overcast,10,2013-03-01 21:15:00
3:35 PM,51.3,30.6,45,30.19,10.0,North,10.4,-,N/A,,Mostly Cloudy,360,2013-03-01 21:35:00
3:55 PM,52.7,30.0,42,30.19,10.0,North,13.8,21.9,N/A,,Scattered Clouds,360,2013-03-01 21:55:00
4:15 PM,52.9,30.2,42,30.19,10.0,North,11.5,-,N/A,,Scattered Clouds,360,2013-03-01 22:15:00
4:35 PM,52.9,30.2,42,30.19,10.0,NNW,12.7,17.3,N/A,,Scattered Clouds,340,2013-03-01 22:35:00
4:55 PM,51.8,31.1,45,30.19,10.0,North,10.4,-,N/A,,Mostly Cloudy,360,2013-03-01 22:55:00
5:15 PM,50.0,31.1,48,30.20,10.0,North,12.7,-,N/A,,Mostly Cloudy,360,2013-03-01 23:15:00
5:35 PM,49.6,31.8,50,30.20,10.0,North,10.4,16.1,N/A,,Scattered Clouds,10,2013-03-01 23:35:00
5:55 PM,50.0,31.1,48,30.20,10.0,North,15.0,18.4,N/A,,Mostly Cloudy,360,2013-03-01 23:55:00
6:15 PM,48.7,31.6,52,30.20,10.0,North,9.2,17.3,N/A,,Mostly Cloudy,360,2013-03-02 00:15:00
6:35 PM,48.4,30.4,50,30.21,10.0,North,12.7,18.4,N/A,,Overcast,360,2013-03-02 00:35:00
6:55 PM,47.1,30.0,51,30.21,10.0,North,10.4,-,N/A,,Mostly Cloudy,360,2013-03-02 00:55:00
7:15 PM,46.2,29.8,53,30.22,10.0,North,9.2,-,N/A,,Scattered Clouds,360,2013-03-02 01:15:00
7:35 PM,45.1,30.0,55,30.22,10.0,North,8.1,-,N/A,,Clear,350,2013-03-02 01:35:00
8:15 PM,44.6,30.4,57,30.23,10.0,NNW,8.1,-,N/A,,Clear,340,2013-03-02 02:15:00
8:35 PM,43.7,30.6,60,30.23,10.0,NNW,6.9,-,N/A,,Clear,340,2013-03-02 02:35:00
8:55 PM,43.2,30.7,62,30.23,10.0,NNW,10.4,-,N/A,,Clear,340,2013-03-02 02:55:00
9:15 PM,43.7,30.2,59,30.24,10.0,North,12.7,-,N/A,,Clear,360,2013-03-02 03:15:00
9:35 PM,43.7,29.1,57,30.24,10.0,North,15.0,19.6,N/A,,Clear,360,2013-03-02 03:35:00
9:55 PM,42.8,28.8,58,30.25,10.0,North,10.4,17.3,N/A,,Clear,360,2013-03-02 03:55:00
10:15 PM,42.1,28.9,60,30.26,10.0,North,12.7,16.1,N/A,,Clear,360,2013-03-02 04:15:00
10:35 PM,41.5,28.9,61,30.27,10.0,North,11.5,-,N/A,,Clear,360,2013-03-02 04:35:00
10:55 PM,40.6,28.8,63,30.27,10.0,North,10.4,16.1,N/A,,Clear,350,2013-03-02 04:55:00
11:15 PM,39.9,28.9,65,30.27,10.0,North,11.5,17.3,N/A,,Clear,360,2013-03-02 05:15:00
11:35 PM,39.4,28.9,66,30.28,10.0,North,9.2,-,N/A,,Clear,10,2013-03-02 05:35:00
11:55 PM,38.3,28.0,67,30.28,10.0,North,6.9,-,N/A,,Clear,10,2013-03-02 05:55:00